[[{"header":{"parameterUnit":"m.s-1","parameterCategory":1,"la1":30.2991,"la2":30.254,"lo1":-89.0895,"lo2":-89.0444,"dy":0.0017,"dx":0.0017,"nx":28,"ny":28,"refTime":"2025-11-10T03:00:00:Z","depth":0,"parameterNumber":2,"parameterNumberName":"U-component_of_WINDS"},"data":[0,0,0,0,0,0,0,0,0,0,0,0,0,0,0,0,0,0,0,0,0,0,0,0,0,0,0,0,0,0,0,0,0,0,0,0,0,0,0,0,0,0,0,0,0,0,0,0,0,0,0,0,0,0,0,0,0,0,-2.264,-2.2641,0,-2.2687,-2.2687,-2.2688,-2.2663,-2.2662,-2.2661,-2.2659,-2.2706,-2.2709,-2.2711,0,0,0,0,0,0,0,0,0,0,0,0,0,-2.2531,-2.2533,-2.264,-2.2641,-2.2641,-2.2687,-2.2687,-2.2688,-2.2663,-2.2662,-2.266,-2.2659,-2.2706,-2.2708,-2.2711,0,0,0,0,0,0,0,0,0,0,0,0,0,-2.2578,-2.2533,-2.264,-2.2635,-2.2635,-2.2686,-2.2687,-2.2688,-2.2664,-2.2662,-2.266,-2.2658,-2.2705,-2.2708,-2.2712,-2.2772,0,0,-2.2723,-2.2724,0,0,0,0,0,0,0,0,-2.2575,-2.2582,-2.2635,-2.2635,-2.2635,-2.2667,-2.2666,-2.2716,-2.2664,-2.2653,-2.2659,-2.2657,-2.2695,-2.2699,-2.2712,-2.2774,-2.2776,-2.2723,-2.2725,-2.2727,-2.2728,0,0,0,0,0,0,0,-2.2572,-2.258,-2.2659,-2.2636,-2.2636,-2.263,-2.2635,-2.2675,-2.2684,-2.2653,-2.2652,-2.2658,-2.2695,-2.2709,-2.2713,-2.2776,-2.2723,-2.2726,-2.2728,-2.273,-2.2891,-2.2893,0,0,0,0,0,0,-2.2569,-2.2577,-2.2657,-2.266,-2.26,-2.2633,-2.2639,-2.2659,-2.2683,-2.2685,-2.2659,-2.2656,-2.2703,-2.2709,-2.2714,-2.2786,-2.2727,-2.273,-2.2732,-2.2889,-2.2891,-2.2893,0,0,0,0,0,0,-2.2567,-2.2576,-2.2655,-2.2618,-2.2628,-2.2637,-2.266,-2.2661,-2.2675,-2.2687,-2.2689,-2.2672,-2.2702,-2.2709,-2.2758,-2.2788,-2.2732,-2.2735,-2.2886,-2.2889,-2.2892,-2.2931,0,0,0,0,0,0,-2.2564,-2.2576,-2.2598,-2.2619,-2.263,-2.2698,-2.2662,-2.2663,-2.2681,-2.2678,-2.27,-2.2702,-2.2701,-2.2753,-2.2761,-2.2792,-2.2738,-2.2883,-2.2887,-2.2891,-2.2927,-2.2935,-2.2941,0,0,0,0,0,-2.256,-2.2607,-2.26,-2.2609,-2.2658,-2.27,-2.2706,-2.2704,-2.2683,-2.2706,-2.2715,-2.2701,-2.2783,-2.2758,-2.2767,-2.2799,-2.2881,-2.2886,-2.2891,-2.2923,-2.2933,-2.2941,0,0,0,0,0,0,-2.2589,-2.2609,-2.2601,-2.2657,-2.2677,-2.2695,-2.2724,-2.2715,-2.2741,-2.2736,-2.2734,-2.2739,-2.2789,-2.2799,-2.277,-2.2859,-2.2829,-2.2836,-2.285,-2.286,-2.2867,-2.2863,-2.2741,0,0,0,0,0,-2.2602,-2.2634,-2.265,-2.2697,-2.2708,-2.2714,-2.2732,-2.273,-2.275,-2.2758,-2.277,-2.279,-2.2821,-2.2841,-2.287,-2.2928,-2.2933,-2.2955,-2.2962,-2.2969,-2.2974,-2.3007,-2.3017,-2.2909,-2.2909,-2.2909,0,0,-2.2629,-2.2644,-2.2664,-2.2703,-2.2719,-2.2752,-2.2721,-2.2758,-2.2782,-2.2764,-2.281,-2.282,-2.2842,-2.2896,-2.2921,-2.2906,-2.3005,-2.2975,-2.2979,-2.2982,-2.3012,-2.3023,-2.3032,-2.2912,-2.2911,-2.2911,0,0,-2.2695,-2.2709,-2.2751,-2.2767,-2.279,-2.2795,-2.2805,-2.2825,-2.2831,-2.2878,-2.2865,-2.2894,-2.2947,-2.2963,-2.2979,-2.3053,-2.3041,-2.3062,-2.3101,-2.3132,-2.3141,-2.3148,-2.3175,-2.3184,-2.3068,-2.3068,-2.3068,0,-2.2725,-2.2774,-2.2773,-2.281,-2.2828,-2.2814,-2.2856,-2.2871,-2.2903,-2.2916,-2.2899,-2.2965,-2.2979,-2.3037,-2.3055,-2.3068,-2.308,-2.3059,-2.314,-2.3147,-2.3154,-2.3179,-2.3189,-2.3071,-2.307,-2.307,-2.307,0,-2.2811,-2.2845,-2.2876,-2.2907,-2.2929,-2.2968,-2.2973,-2.2995,-2.2991,-2.2997,-2.3045,-2.3062,-2.3094,-2.3108,-2.3104,-2.3166,-2.3156,-2.314,-2.3109,-2.3167,-2.319,-2.32,-2.3074,-2.3073,-2.3073,-2.3072,0,0,-2.2895,-2.2926,-2.2937,-2.2952,-2.2978,-2.3004,-2.3044,-2.3075,-2.3094,-2.3117,-2.315,-2.3195,-2.3181,-2.3198,-2.3196,-2.3224,-2.3282,-2.3205,-2.3205,-2.3218,-2.3351,-2.3363,-2.3374,-2.3275,-2.3277,-2.3278,-2.3349,0,-2.2962,-2.3031,-2.3031,-2.3095,-2.3127,-2.3114,-2.3149,-2.3168,-2.3175,-2.3204,-2.3212,-2.3244,-2.3222,-2.3233,-2.326,-2.3269,-2.3309,-2.3264,-2.3305,-2.3307,-2.3299,-2.3387,-2.3399,-2.3465,-2.3359,-2.336,-2.3361,0,-2.305,-2.3076,-2.3143,-2.3165,-2.3178,-2.3209,-2.3239,-2.3266,-2.3288,-2.3292,-2.3312,-2.3306,-2.3347,-2.3316,-2.3372,-2.3341,-2.3359,-2.3366,-2.3368,-2.3372,-2.3337,-2.3392,-2.3486,-2.3496,-2.3376,-2.3375,-2.3374,0,-2.3104,-2.3157,-2.3203,-2.3216,-2.3243,-2.3265,-2.3277,-2.3298,-2.3317,-2.3343,-2.3356,-2.3386,-2.3403,-2.3427,-2.3429,-2.3407,-2.3486,-2.3455,-2.3489,-2.3489,-2.3506,-2.3505,-2.3604,-2.3518,-2.3518,-2.3517,-2.3517,0,-2.3179,-2.3221,-2.3228,-2.3257,-2.3303,-2.3304,-2.3349,-2.3359,-2.3378,-2.3409,-2.34,-2.3429,-2.3431,-2.3461,-2.3464,-2.3509,-2.3517,-2.3521,-2.3521,-2.3521,-2.3521,-2.3532,-2.3527,-2.352,-2.3519,-2.3519,-2.3518,0,-2.3248,-2.3255,-2.3305,-2.3326,-2.3333,-2.3366,-2.3384,-2.3412,-2.3419,-2.3458,-2.3467,-2.3478,-2.3513,-2.3518,-2.3559,-2.3561,-2.3616,-2.3611,-2.3608,-2.3607,-2.3641,-2.3638,-2.3751,-2.3766,-2.367,-2.3671,-2.3672,0,-2.3295,-2.3326,-2.3352,-2.3372,-2.3385,-2.3418,-2.3438,-2.344,-2.3461,-2.349,-2.3514,-2.3548,-2.3575,-2.3632,-2.3643,-2.3675,-2.3671,-2.3708,-2.3675,-2.3675,-2.3671,-2.3669,-2.3672,-2.3714,-2.3715,-2.3716,-2.3717,0,-2.3377,-2.338,-2.3409,-2.344,-2.3465,-2.3489,-2.3512,-2.3529,-2.3534,-2.3559,-2.3595,-2.3616,-2.3658,-2.3692,-2.3724,-2.3736,-2.3727,-2.3727,-2.3737,-2.3737,-2.3734,-2.3736,-2.3625,-2.3724,-2.3724,-2.3723,-2.3723,-2.3722,-2.3436,-2.3464,-2.3487,-2.352,-2.3538,-2.356,-2.3587,-2.3598,-2.3628,-2.3662,-2.3662,-2.3702,-2.3724,-2.3765,-2.378,-2.3811,-2.3799,-2.3813,-2.3816,-2.3819,-2.3823,-2.373,-2.3817,-2.3817,-2.3816,-2.3816,-2.3816,0,-2.3518,-2.3533,-2.3563,-2.3596,-2.3623,-2.3613,-2.3639,-2.3661,-2.3696,-2.3718,-2.3745,-2.3787,-2.382,-2.3835,-2.3868,-2.389,-2.3887,-2.3898,-2.3896,-2.39,-2.3832,-2.382,-2.39,-2.39,-2.39,-2.39,-2.39,-2.39,-2.3564,-2.361,-2.3616,-2.3671,-2.3685,-2.3724,-2.3739,-2.376,-2.3777,-2.3824,-2.3852,-2.3862,-2.3881,-2.3915,-2.3946,-2.3949,-2.3961,-2.3975,-2.3977,-2.3913,-2.3904,-2.3896,-2.3885,-2.3978,-2.3978,-2.4042,-2.4042,-2.4043]},{"header":{"parameterUnit":"m.s-1","parameterCategory":1,"la1":30.2991,"la2":30.254,"lo1":-89.0895,"lo2":-89.0444,"dy":0.0017,"dx":0.0017,"nx":28,"ny":28,"refTime":"2025-11-10T03:00:00:Z","depth":0,"parameterNumber":3,"parameterNumberName":"V-component_of_WINDS"},"data":[0,0,0,0,0,0,0,0,0,0,0,0,0,0,0,0,0,0,0,0,0,0,0,0,0,0,0,0,0,0,0,0,0,0,0,0,0,0,0,0,0,0,0,0,0,0,0,0,0,0,0,0,0,0,0,0,0,0,-1.4644,-1.4644,0,-1.4679,-1.468,-1.468,-1.4654,-1.4653,-1.4652,-1.4651,-1.4688,-1.469,-1.4692,0,0,0,0,0,0,0,0,0,0,0,0,0,-1.4555,-1.4557,-1.4644,-1.4644,-1.4645,-1.4679,-1.468,-1.468,-1.4654,-1.4653,-1.4651,-1.465,-1.4687,-1.469,-1.4692,0,0,0,0,0,0,0,0,0,0,0,0,0,-1.4592,-1.4557,-1.4644,-1.4636,-1.4636,-1.4679,-1.468,-1.468,-1.4655,-1.4653,-1.4651,-1.465,-1.4687,-1.469,-1.4693,-1.4746,0,0,-1.4702,-1.4703,0,0,0,0,0,0,0,0,-1.459,-1.4596,-1.4637,-1.4637,-1.4636,-1.466,-1.4662,-1.4702,-1.4655,-1.4647,-1.4651,-1.4649,-1.468,-1.4684,-1.4694,-1.4748,-1.4749,-1.4702,-1.4704,-1.4706,-1.4706,0,0,0,0,0,0,0,-1.4588,-1.4594,-1.4658,-1.4637,-1.4637,-1.4631,-1.4634,-1.4669,-1.4673,-1.4648,-1.4646,-1.4651,-1.468,-1.4691,-1.4695,-1.475,-1.4702,-1.4705,-1.4707,-1.4708,-1.4849,-1.4851,0,0,0,0,0,0,-1.4586,-1.4592,-1.4657,-1.4659,-1.4609,-1.4634,-1.4638,-1.4654,-1.4673,-1.4674,-1.4652,-1.4649,-1.4687,-1.4691,-1.4696,-1.476,-1.4706,-1.4708,-1.471,-1.4847,-1.4849,-1.4851,0,0,0,0,0,0,-1.4584,-1.4592,-1.4655,-1.4625,-1.4633,-1.4637,-1.4656,-1.4656,-1.4667,-1.4676,-1.4676,-1.4663,-1.4686,-1.4692,-1.4734,-1.4761,-1.471,-1.4713,-1.4845,-1.4848,-1.485,-1.4888,0,0,0,0,0,0,-1.4581,-1.4591,-1.4611,-1.4626,-1.4634,-1.4692,-1.4658,-1.4658,-1.4673,-1.4669,-1.4686,-1.4687,-1.4685,-1.4729,-1.4737,-1.4764,-1.4715,-1.4842,-1.4846,-1.4849,-1.4884,-1.4892,-1.4898,0,0,0,0,0,-1.4578,-1.4621,-1.4613,-1.4621,-1.466,-1.4694,-1.4699,-1.4695,-1.4675,-1.4695,-1.4701,-1.4687,-1.4756,-1.4734,-1.4742,-1.4771,-1.4841,-1.4845,-1.4849,-1.4881,-1.489,-1.4898,0,0,0,0,0,0,-1.461,-1.4623,-1.4614,-1.4662,-1.4677,-1.4689,-1.4715,-1.4704,-1.4726,-1.4722,-1.4716,-1.472,-1.4764,-1.4772,-1.4746,-1.4823,-1.4795,-1.4802,-1.4817,-1.4826,-1.4832,-1.483,-1.4718,0,0,0,0,0,-1.4623,-1.4649,-1.4659,-1.47,-1.4708,-1.4711,-1.4725,-1.4721,-1.4736,-1.4743,-1.4751,-1.4767,-1.4792,-1.4809,-1.4833,-1.4885,-1.4888,-1.4909,-1.4916,-1.4921,-1.4927,-1.4955,-1.4964,-1.4865,-1.4865,-1.4865,0,0,-1.4649,-1.4659,-1.4676,-1.4707,-1.4718,-1.4746,-1.4716,-1.4747,-1.4767,-1.4747,-1.4787,-1.4794,-1.4811,-1.4858,-1.488,-1.4866,-1.4955,-1.4927,-1.4931,-1.4933,-1.496,-1.4969,-1.4978,-1.4868,-1.4868,-1.4867,0,0,-1.4712,-1.4722,-1.4758,-1.4769,-1.4786,-1.4787,-1.4796,-1.481,-1.4813,-1.4853,-1.4839,-1.4863,-1.4907,-1.492,-1.4933,-1.4999,-1.4988,-1.5007,-1.5043,-1.5071,-1.5078,-1.5085,-1.5109,-1.5118,-1.5013,-1.5013,-1.5013,0,-1.4743,-1.4783,-1.4778,-1.4809,-1.4823,-1.4806,-1.4842,-1.4854,-1.4878,-1.4888,-1.4872,-1.4927,-1.4937,-1.4987,-1.5003,-1.5014,-1.5024,-1.5006,-1.5078,-1.5085,-1.5091,-1.5114,-1.5123,-1.5015,-1.5015,-1.5015,-1.5014,0,-1.4821,-1.4849,-1.4876,-1.4899,-1.4916,-1.495,-1.495,-1.4968,-1.4961,-1.4964,-1.5005,-1.5017,-1.5043,-1.5054,-1.5049,-1.5103,-1.5094,-1.5078,-1.505,-1.5103,-1.5124,-1.5133,-1.5018,-1.5018,-1.5017,-1.5016,0,0,-1.4905,-1.4924,-1.4934,-1.4944,-1.4961,-1.4984,-1.5017,-1.5041,-1.5057,-1.5074,-1.5102,-1.5139,-1.5124,-1.5138,-1.5134,-1.5158,-1.521,-1.5139,-1.5139,-1.5152,-1.5272,-1.5284,-1.5294,-1.5202,-1.5204,-1.5205,-1.527,0,-1.4968,-1.5025,-1.5021,-1.5075,-1.5101,-1.5085,-1.5114,-1.5128,-1.5131,-1.5154,-1.5158,-1.5185,-1.5163,-1.5171,-1.5194,-1.5199,-1.5234,-1.5194,-1.5229,-1.523,-1.5225,-1.5305,-1.5319,-1.5379,-1.5279,-1.528,-1.5281,0,-1.505,-1.5069,-1.5126,-1.5139,-1.515,-1.5176,-1.5198,-1.5221,-1.5236,-1.5237,-1.5252,-1.5244,-1.5277,-1.5248,-1.5295,-1.5268,-1.5281,-1.5286,-1.5288,-1.5292,-1.5259,-1.5311,-1.5398,-1.5408,-1.5294,-1.5293,-1.5292,0,-1.5106,-1.5146,-1.5185,-1.5195,-1.5211,-1.5229,-1.5237,-1.5251,-1.5266,-1.5285,-1.5295,-1.5319,-1.5332,-1.535,-1.5349,-1.5327,-1.5396,-1.5366,-1.5398,-1.5398,-1.5413,-1.5413,-1.5504,-1.5422,-1.5421,-1.5421,-1.5421,0,-1.5177,-1.5213,-1.5211,-1.5235,-1.5274,-1.5268,-1.5308,-1.5313,-1.5325,-1.535,-1.5338,-1.5362,-1.5358,-1.5382,-1.5381,-1.5419,-1.5425,-1.5427,-1.5427,-1.5429,-1.5428,-1.5438,-1.5434,-1.5424,-1.5423,-1.5423,-1.5422,0,-1.5246,-1.5246,-1.5288,-1.53,-1.5304,-1.5332,-1.5342,-1.5365,-1.5367,-1.5399,-1.5406,-1.541,-1.5437,-1.5437,-1.5469,-1.5468,-1.5516,-1.551,-1.5511,-1.551,-1.5541,-1.5538,-1.5643,-1.5656,-1.5564,-1.5565,-1.5566,0,-1.5292,-1.5319,-1.5333,-1.5349,-1.5358,-1.5383,-1.5399,-1.5394,-1.5411,-1.543,-1.5451,-1.5477,-1.5498,-1.5543,-1.5549,-1.5573,-1.5568,-1.5603,-1.5572,-1.5573,-1.5569,-1.5568,-1.557,-1.5609,-1.561,-1.5611,-1.5612,0,-1.5374,-1.5372,-1.5394,-1.5417,-1.5435,-1.5453,-1.5469,-1.5483,-1.548,-1.5499,-1.5527,-1.5543,-1.5575,-1.5602,-1.5625,-1.5633,-1.5622,-1.5621,-1.563,-1.5633,-1.5632,-1.5633,-1.5528,-1.5619,-1.5618,-1.5618,-1.5617,-1.5617,-1.5433,-1.5456,-1.5469,-1.5495,-1.5506,-1.5522,-1.5544,-1.5548,-1.5571,-1.5597,-1.5593,-1.5624,-1.5639,-1.5669,-1.5679,-1.5703,-1.5691,-1.5704,-1.5707,-1.571,-1.5714,-1.5627,-1.5708,-1.5707,-1.5707,-1.5707,-1.5707,0,-1.5514,-1.5521,-1.5545,-1.5567,-1.5587,-1.5575,-1.5592,-1.561,-1.5637,-1.5651,-1.5672,-1.5704,-1.573,-1.5737,-1.5762,-1.578,-1.5776,-1.5787,-1.5786,-1.5788,-1.5723,-1.5713,-1.579,-1.579,-1.579,-1.579,-1.579,-1.579,-1.5558,-1.5596,-1.5597,-1.5641,-1.5648,-1.5678,-1.5689,-1.5704,-1.5715,-1.5751,-1.5772,-1.5777,-1.5788,-1.5814,-1.5837,-1.5838,-1.5848,-1.5861,-1.5861,-1.5801,-1.5792,-1.5784,-1.5775,-1.5864,-1.5864,-1.5924,-1.5924,-1.5925]}]]